User: anonymous   Login
Location: Unspecified
(0.0000°N, 0.0000°E)
Time: 15:11:45
(UTC+00:00)
Language:

USA 186 - Orbit

View from above orbital plane
View from above orbital plane
View from above satellite
View from above satellite

Ground track
Ground track

The orbit data is extracted from the following two-line orbital elements,

1 28888U 05042A   14349.83315972 0.00080000  00000-0  28732-3 0    00
2 28888  96.8711  25.5935 0121618 352.1933 270.4721 15.77769943    03
Epoch (UTC): 15 December 2014 19:59:45
Eccentricity: 0.0121618
inclination: 96.8711°
perigee height: 255 km
apogee height: 418 km
right ascension of ascending node: 25.5935°
argument of perigee: 352.1933°
revolutions per day: 15.77769943
mean anomaly at epoch: 270.4721°
orbit number at epoch: 0

The dashed part of the orbit path shows where the satellite is in the earth's shadow,  

DLR